Waseca, MN

9:38 AM CDT on August 30, 2016 (GMT -0500)
Waseca Municipal

Weather History for KACQ - December, 2012

Change the Weather History Date:

Thursday, December 13, 2012

  Actual Average Record
Temperature  
Mean Temperature 26 °F -  
Max Temperature 39 °F 27 °F 54 °F (1968)
Min Temperature 14 °F 9 °F -28 °F (1917)
Degree Days  
Heating Degree Days 38    
Moisture  
Dew Point 18 °F    
Average Humidity 67    
Maximum Humidity 86    
Minimum Humidity 52    
Precipitation  
Precipitation 0.00 in - - ()
Sea Level Pressure  
Sea Level Pressure 30.01 in    
Wind  
Wind Speed 10 mph (SSW)    
Max Wind Speed 20 mph    
Max Gust Speed 22 mph    
Visibility 8 miles    
Events      
Averages and records for this station are not official NWS values.
T = Trace of Precipitation, MM = Missing Value Source: NWS Daily Summary

Daily Weather History Graph

Daily Weather History Graph

Search for Another Location

Airport or City:

Trip Planner

Search our weather history database for the weather conditions in past years. The results will help you decide how hot, cold, wet, or windy it might be!

Date:

Astronomy

Dec. 13, 2012 Rise Set
Actual Time 7:41 AM CST 4:36 PM CST
Civil Twilight 7:08 AM CST 5:09 PM CST
Nautical Twilight 6:31 AM CST 5:45 PM CST
Astronomical Twilight 5:56 AM CST 6:20 PM CST
Moon 7:49 AM CST (12/13) 5:20 PM CST (12/13)
Length of Visible Light 10h 01m
Length of Day
8h 55m
New Moon, 0% of the Moon is Illuminated
Dec 13
New Moon
Dec 19
First Quarter
Dec 28
Full
Jan 4
Last Quarter
Jan 11
New

Hourly Weather History & Observations

Time (CST) Temp. Windchill Dew Point Humidity Pressure Visibility Wind Dir Wind Speed Gust Speed Precip Events Conditions
12:13 AM 39.2 °F 30.8 °F 23.0 °F 52% 29.95 in 10.0 mi South 15.0 mph - N/A   Clear
12:34 AM 37.4 °F 28.2 °F 23.0 °F 56% 29.95 in 10.0 mi South 16.1 mph - N/A   Clear
12:53 AM 35.6 °F 26.2 °F 21.2 °F 56% 29.95 in 10.0 mi South 15.0 mph - N/A   Clear
1:14 AM 35.6 °F 26.6 °F 21.2 °F 56% 29.94 in 10.0 mi South 13.8 mph 19.6 mph N/A   Clear
1:33 AM 33.8 °F 24.3 °F 21.2 °F 60% 29.93 in 10.0 mi South 13.8 mph - N/A   Clear
1:53 AM 33.8 °F 23.2 °F 19.4 °F 56% 29.93 in 10.0 mi South 17.3 mph - N/A   Clear
2:14 AM 33.8 °F 23.2 °F 19.4 °F 56% 29.93 in 10.0 mi South 17.3 mph 21.9 mph N/A   Clear
2:34 AM 33.8 °F 22.5 °F 19.4 °F 56% 29.93 in 10.0 mi South 19.6 mph - N/A   Clear
2:53 AM 35.6 °F 24.8 °F 19.4 °F 52% 29.93 in 10.0 mi South 19.6 mph - N/A   Clear
3:14 AM 35.6 °F 25.5 °F 19.4 °F 52% 29.93 in 10.0 mi South 17.3 mph - N/A   Clear
3:33 AM 35.6 °F 25.5 °F 19.4 °F 52% 29.93 in 10.0 mi South 17.3 mph - N/A   Clear
3:53 AM 33.8 °F 23.9 °F 19.4 °F 56% 29.93 in 10.0 mi South 15.0 mph - N/A   Clear
4:14 AM 33.8 °F 23.9 °F 19.4 °F 56% 29.93 in 10.0 mi South 15.0 mph - N/A   Clear
4:34 AM 33.8 °F 24.3 °F 19.4 °F 56% 29.93 in 10.0 mi South 13.8 mph - N/A   Clear
4:53 AM 33.8 °F 25.3 °F 19.4 °F 56% 29.93 in 10.0 mi South 11.5 mph - N/A   Clear
5:13 AM 33.8 °F 25.3 °F 21.2 °F 60% 29.93 in 10.0 mi South 11.5 mph - N/A   Clear
5:34 AM 33.8 °F 25.3 °F 21.2 °F 60% 29.93 in 10.0 mi South 11.5 mph - N/A   Clear
6:14 AM 32.0 °F 24.8 °F 19.4 °F 60% 29.94 in 10.0 mi South 8.1 mph - N/A   Clear
6:33 AM 30.2 °F 24.3 °F 19.4 °F 64% 29.95 in 10.0 mi South 5.8 mph - N/A   Clear
6:54 AM 30.2 °F 24.3 °F 19.4 °F 64% 29.95 in 10.0 mi South 5.8 mph - N/A   Clear
7:13 AM 28.4 °F 23.3 °F 19.4 °F 69% 29.96 in 10.0 mi South 4.6 mph - N/A   Clear
7:34 AM 26.6 °F 20.0 °F 17.6 °F 69% 29.96 in 10.0 mi South 5.8 mph - N/A   Clear
7:54 AM 26.6 °F 20.0 °F 17.6 °F 69% 29.96 in 10.0 mi South 5.8 mph - N/A   Clear
8:14 AM 28.4 °F 22.2 °F 19.4 °F 69% 29.96 in 10.0 mi South 5.8 mph - N/A   Clear
8:34 AM 28.4 °F 22.2 °F 17.6 °F 64% 29.96 in 10.0 mi South 5.8 mph - N/A   Clear
8:54 AM 28.4 °F 22.2 °F 17.6 °F 64% 29.97 in 10.0 mi South 5.8 mph - N/A   Clear
9:14 AM 30.2 °F 23.4 °F 19.4 °F 64% 29.97 in 10.0 mi South 6.9 mph - N/A   Clear
9:34 AM 30.2 °F 22.6 °F 19.4 °F 64% 29.98 in 10.0 mi South 8.1 mph - N/A   Clear
9:53 AM 30.2 °F 23.4 °F 19.4 °F 64% 29.98 in 10.0 mi South 6.9 mph - N/A   Clear
10:14 AM 30.2 °F 24.3 °F 19.4 °F 64% 29.99 in 10.0 mi SW 5.8 mph - N/A   Clear
10:33 AM 32.0 °F 25.6 °F 21.2 °F 64% 30.00 in 10.0 mi SW 6.9 mph - N/A   Clear
10:53 AM 32.0 °F 27.5 °F 21.2 °F 64% 30.01 in 10.0 mi WSW 4.6 mph - N/A   Clear
11:14 AM 32.0 °F 25.6 °F 21.2 °F 64% 30.01 in 10.0 mi WSW 6.9 mph - N/A   Clear
11:33 AM 32.0 °F 24.8 °F 21.2 °F 64% 30.01 in 10.0 mi West 8.1 mph - N/A   Clear
11:53 AM 28.4 °F 22.2 °F 19.4 °F 69% 30.01 in 10.0 mi West 5.8 mph - N/A   Clear
12:14 PM 30.2 °F 26.7 °F 21.2 °F 69% 30.02 in 10.0 mi WSW 3.5 mph - N/A   Clear
12:33 PM 32.0 °F 27.5 °F 23.0 °F 69% 30.01 in 10.0 mi West 4.6 mph - N/A   Clear
12:54 PM 32.0 °F 24.8 °F 23.0 °F 69% 30.01 in 10.0 mi WSW 8.1 mph - N/A   Clear
1:14 PM 30.2 °F 24.3 °F 21.2 °F 69% 30.01 in 10.0 mi WSW 5.8 mph - N/A   Clear
1:33 PM 28.4 °F 22.2 °F 19.4 °F 69% 30.01 in 10.0 mi WSW 5.8 mph - N/A   Clear
1:54 PM 30.2 °F 22.6 °F 21.2 °F 69% 30.02 in 10.0 mi West 8.1 mph - N/A   Clear
2:13 PM 30.2 °F 24.3 °F 21.2 °F 69% 30.03 in 10.0 mi WSW 5.8 mph - N/A   Clear
2:34 PM 28.4 °F 22.2 °F 19.4 °F 69% 30.03 in 10.0 mi WSW 5.8 mph - N/A   Clear
2:54 PM 28.4 °F 22.2 °F 19.4 °F 69% 30.04 in 7.0 mi SW 5.8 mph - N/A   Clear
3:13 PM 26.6 °F 20.0 °F 19.4 °F 74% 30.04 in 7.0 mi WSW 5.8 mph - N/A   Clear
3:34 PM 26.6 °F 19.1 °F 19.4 °F 74% 30.05 in 7.0 mi WSW 6.9 mph - N/A   Clear
3:54 PM 24.8 °F 19.1 °F 17.6 °F 74% 30.06 in 7.0 mi WSW 4.6 mph - N/A   Clear
4:34 PM 24.8 °F 20.5 °F 19.4 °F 80% 30.07 in 7.0 mi West 3.5 mph - N/A   Clear
7:13 PM 19.4 °F - 14.0 °F 80% 30.10 in 7.0 mi Calm Calm - N/A   Clear
7:34 PM 21.2 °F - 14.0 °F 74% 30.10 in 7.0 mi Calm Calm - N/A   Clear
7:53 PM 21.2 °F - 15.8 °F 80% 30.10 in 7.0 mi Calm Calm - N/A   Clear
8:14 PM 19.4 °F - 14.0 °F 80% 30.11 in 5.0 mi Calm Calm - N/A   Haze
8:34 PM 19.4 °F - 15.8 °F 86% 30.10 in 5.0 mi Calm Calm - N/A   Clear
8:53 PM 19.4 °F - 14.0 °F 80% 30.10 in 5.0 mi Calm Calm - N/A   Haze
9:14 PM 19.4 °F - 14.0 °F 80% 30.11 in 5.0 mi Calm Calm - N/A   Haze
9:34 PM 17.6 °F - 12.2 °F 79% 30.11 in 5.0 mi Calm Calm - N/A   Haze
9:54 PM 15.8 °F - 10.4 °F 79% 30.12 in 5.0 mi Calm Calm - N/A   Haze
10:13 PM 17.6 °F - 12.2 °F 79% 30.11 in 4.0 mi Calm Calm - N/A   Haze
10:33 PM 17.6 °F - 12.2 °F 79% 30.11 in 3.0 mi Calm Calm - N/A   Haze
10:54 PM 14.0 °F - 10.4 °F 86% 30.12 in 4.0 mi Calm Calm - N/A   Haze
11:13 PM 17.6 °F - 12.2 °F 79% 30.12 in 3.0 mi Calm Calm - N/A   Haze
11:34 PM 15.8 °F - 10.4 °F 79% 30.12 in 3.0 mi Calm Calm - N/A   Haze
11:53 PM 17.6 °F - 12.2 °F 79% 30.13 in 5.0 mi Calm Calm - N/A   Clear